Temperature
22 21 21 20 19 19 19 19 19 19 19 18 18 18 18 18 18 18 18 18 18 18 18 18 18 18 18 18 18 18 18 18 17 18 18 18 18 18 18 18 18 18 18
23 22 21 20 20 19 19 19 19 19 19 19 19 19 18 18 18 18 18 18 18 18 18 18 18 18 18 18 17 18 18 18 18 18 18 18 18 18 18 18 18 18 18
23 22 21 21 20 20 19 19 19 19 19 19 19 19 19 18 18 18 18 18 18 18 18 18 18 18 18 18 18 18 18 18 18 18 18 19 19 19 19 18 18 18 18
24 23 22 21 20 20 20 19 20 20 20 19 19 19 19 19 19 18 18 18 18 18 18 18 18 18 18 18 18 18 17 17 18 17 18 18 18 18 19 18 18 18 18
24 23 22 21 21 20 20 20 20 20 19 19 19 19 19 18 18 18 18 18 18 18 18 18 18 18 18 18 18 18 17 18 18 18 18 18 18 18 18 19 18 18 18
24 23 22 21 21 20 20 20 20 20 19 19 19 19 19 19 18 18 18 18 18 18 18 18 18 18 18 18 18 18 18 18 17 17 18 18 18 18 18 18 18 18 18
24 23 22 21 21 20 20 20 20 20 20 19 19 19 19 19 18 18 18 18 18 18 18 18 18 18 18 18 18 18 18 17 17 17 17 18 18 18 18 18 18 18 18
24 23 23 22 21 20 20 20 20 20 19 19 19 19 19 19 18 18 18 18 18 18 18 18 18 18 18 18 18 18 18 18 17 17 17 17 17 17 17 17 18 18 18
24 23 22 22 21 20 20 20 20 20 20 19 19 19 19 19 18 18 18 18 18 18 18 18 18 18 18 18 18 18 18 17 17 17 17 17 17 17 17 17 17 17 18
23 23 22 22 21 20 20 19 19 20 20 19 19 19 19 19 19 19 18 18 18 18 18 18 18 18 18 18 18 17 17 17 17 17 17 17 17 17 17 17 17 17 17
23 23 22 21 21 20 20 19 19 19 19 19 19 19 19 19 19 18 18 18 18 18 18 18 17 17 17 17 17 17 17 17 17 17 17 17 17 17 17 17 17 17 17
23 22 21 21 20 20 20 19 19 19 19 19 19 19 19 18 18 18 18 18 18 18 18 17 17 17 17 17 17 17 17 17 17 17 17 17 17 17 17 17 17 17 17
22 22 21 20 20 20 19 19 19 18 18 18 19 18 18 18 18 18 18 18 18 18 17 17 17 17 17 17 17 17 17 17 16 16 16 16 16 16 17 16 16 16 16
21 21 20 20 19 19 19 19 19 18 18 18 18 18 18 18 18 18 18 17 17 17 17 17 17 17 17 17 17 16 16 16 16 16 16 16 16 16 16 16 16 16 16
20 20 20 19 19 18 18 18 18 18 18 18 18 18 18 18 18 17 17 17 17 17 17 17 17 17 17 17 16 16 16 16 16 16 16 16 16 16 16 16 16 16 16
20 19 19 19 18 18 18 18 18 18 18 18 18 17 17 17 17 17 17 17 17 16 16 16 16 16 16 16 16 16 16 16 16 16 16 16 16 16 16 16 16 15 15
20 19 19 18 18 18 18 17 17 17 17 17 17 17 17 17 16 16 16 16 16 16 16 16 16 16 16 16 16 16 16 15 15 15 15 16 15 15 15 15 15 15 15
19 18 18 18 17 17 17 17 17 17 17 17 17 17 16 16 16 16 16 16 16 15 15 15 15 15 15 16 16 16 15 15 15 15 15 15 15 15 15 14 14 14 14
18 18 17 17 17 17 17 16 16 16 16 16 16 16 16 15 15 15 15 15 15 15 15 15 15 15 15 15 15 15 15 14 14 14 14 14 14 14 14 14 14 14 14
17 17 17 17 17 17 16 16 16 16 16 16 15 15 15 15 15 15 15 15 15 15 14 14 14 14 15 15 15 15 15 14 14 14 14 14 14 14 14 14 13 13 13
16 16 16 16 16 16 16 16 16 16 16 15 15 15 15 15 15 15 14 14 14 14 14 14 14 14 14 15 15 15 14 14 14 14 14 14 14 14 14 14 13 13 13
16 16 16 16 15 15 15 15 15 15 15 15 15 14 14 15 15 14 14 14 14 14 14 14 14 14 14 14 14 14 14 14 14 14 14 14 13 13 13 13 13 13 13
16 15 15 15 15 15 15 14 15 14 14 14 14 14 14 14 14 14 14 14 14 14 14 14 14 14 14 14 14 14 14 14 13 13 13 13 13 13 13 13 13 12 12
15 15 15 15 15 15 14 14 14 14 14 14 14 14 14 14 14 14 14 14 14 14 14 14 14 14 14 13 13 13 13 13 12 12 12 12 12 12 12 12 12 12 12
15 15 14 14 14 14 14 14 14 14 14 13 13 13 14 14 14 14 14 14 14 14 13 13 13 13 13 13 13 13 13 12 12 12 12 12 12 12 12 12 11 11 11
15 14 14 14 14 14 14 14 14 14 13 13 13 13 13 13 13 13 13 13 13 13 13 13 13 13 13 13 12 12 12 12 12 12 11 11 11 11 11 11 11 11 11
Wind_Speed
7 8 9 8 8 7 7 6 6 6 5 5 4 4 5 4 4 4 5 6 5 6 5 4 4 5 4 4 4 4 5 4 3 3 2 3 4 4 4 4 4 4 5
8 8 9 9 9 8 8 7 7 7 7 5 4 4 3 3 4 3 4 5 6 6 6 6 5 5 4 5 5 5 4 4 4 3 2 3 4 4 5 4 4 4 4
8 9 10 10 9 9 9 7 8 8 7 6 5 4 3 3 3 4 4 5 6 6 6 6 5 5 5 5 6 5 6 4 4 3 3 3 3 2 4 5 4 4 4
8 9 10 10 10 10 9 8 8 8 8 7 6 6 5 4 3 3 3 4 5 6 6 7 6 5 5 5 6 6 5 6 4 3 4 4 3 3 3 4 4 4 4
9 9 9 10 9 9 9 8 8 8 8 7 6 6 5 4 3 3 3 3 4 5 6 6 6 6 5 6 6 5 6 5 5 5 4 4 4 6 5 4 4 4 4
8 8 9 9 8 8 8 8 8 7 7 7 6 6 5 4 4 4 3 4 3 4 5 6 6 6 6 6 6 6 8 6 6 6 5 5 5 4 4 5 5 4 4
7 8 9 9 9 9 8 8 8 7 7 7 7 7 6 6 6 6 5 5 4 4 4 5 6 6 6 6 7 7 7 8 7 7 6 6 6 5 5 6 5 5 4
5 6 7 8 9 9 8 8 8 7 7 7 7 6 6 6 5 6 5 5 4 4 4 5 5 6 7 7 7 7 8 7 8 9 8 7 7 7 7 6 6 6 5
5 5 6 7 8 8 8 8 8 7 7 7 6 6 6 6 5 5 5 5 4 4 5 5 6 6 7 7 7 7 7 7 8 8 9 8 7 7 7 6 6 6 7
5 5 5 6 7 7 8 8 7 7 7 6 5 5 5 5 5 5 4 4 4 4 4 5 6 6 6 7 7 7 7 7 7 7 7 8 7 6 6 6 6 7 7
4 4 4 4 5 6 7 7 6 6 6 5 5 5 4 5 5 5 4 4 4 3 4 4 5 5 6 6 6 7 7 8 7 7 7 8 8 6 6 6 6 6 7
3 3 4 4 4 5 6 6 5 6 5 5 5 5 4 4 4 5 5 5 5 5 4 4 4 5 5 6 6 7 7 7 7 7 7 7 6 7 7 6 7 6 6
3 4 4 4 4 4 4 4 4 4 5 5 5 5 5 5 5 5 5 5 5 6 5 5 5 6 6 6 7 7 7 7 7 7 7 7 7 7 6 6 7 7 7
3 3 4 3 3 3 3 3 3 3 4 4 4 4 5 5 5 5 5 5 5 6 6 6 6 6 6 6 6 7 7 7 6 6 6 7 7 7 7 6 7 7 6
3 3 3 3 3 2 2 2 2 2 3 3 4 4 5 5 5 5 5 5 5 6 6 6 6 6 6 5 6 6 7 6 6 6 6 6 6 5 6 6 6 6 6
2 2 2 2 2 2 2 2 2 2 2 3 3 3 4 4 5 5 5 5 5 5 5 5 6 6 5 2 3 5 6 6 6 6 6 6 6 5 5 4 5 6 7
2 1 1 1 1 1 2 1 2 2 2 2 2 3 4 4 5 5 4 5 5 5 5 5 5 5 4 3 4 5 6 6 6 5 5 5 3 4 4 5 6 6 7
1 1 1 1 1 1 2 2 2 2 2 2 2 2 3 4 4 4 5 5 4 4 5 5 5 5 4 3 4 5 7 7 6 6 5 5 5 4 3 4 5 5 5
0 1 1 1 0 1 1 1 1 2 1 2 2 2 3 4 4 5 5 4 4 4 4 5 5 5 4 4 4 6 6 6 6 6 6 6 6 3 3 5 5 5 5
1 1 1 1 1 0 1 1 1 1 1 2 2 2 3 4 4 4 4 4 4 5 5 4 5 6 5 4 5 6 6 6 5 5 5 5 5 4 4 6 6 6 5
1 1 1 1 1 0 1 1 1 1 2 2 2 2 2 3 3 3 3 4 4 4 4 4 5 5 5 5 6 6 6 6 6 5 5 4 6 6 6 7 7 6 5
1 1 1 1 1 1 1 0 1 2 2 2 2 2 3 3 3 3 3 4 4 4 4 4 5 4 4 4 4 6 7 6 6 5 5 3 5 7 7 6 4 4 5
1 1 1 1 1 1 1 1 2 2 2 2 2 2 3 3 3 3 3 4 4 4 4 4 4 4 3 2 4 6 6 6 6 5 1 1 4 6 6 7 7 6 6
1 1 0 0 1 1 1 2 2 2 2 3 3 2 3 2 2 3 3 3 3 4 4 4 4 4 3 2 2 2 3 5 5 4 3 5 6 6 5 4 6 6 5
1 1 1 1 2 2 2 1 1 1 2 3 3 3 2 2 2 2 2 3 2 2 3 4 4 4 4 2 2 2 3 3 2 2 3 4 4 4 4 4 4 4 5
2 2 2 2 2 2 2 2 1 1 2 3 3 3 2 2 2 1 1 2 1 1 0 3 4 2 1 1 1 2 2 2 2 3 4 4 4 5 4 4 4 4 4
Wind_Direction
179 179 180 179 174 173 177 180 184 184 192 190 192 187 187 189 186 190 188 193 197 195 203 207 192 204 203 205 204 201 205 208 214 233 233 225 220 223 214 229 239 228 229
181 183 185 184 184 182 186 187 190 191 199 197 205 204 198 198 191 196 188 199 198 197 198 204 206 202 202 204 205 208 218 214 208 228 234 227 214 216 218 223 226 236 235
187 185 185 188 188 189 193 196 199 197 199 197 198 191 186 201 197 199 199 206 206 204 209 207 217 214 216 207 211 212 218 226 225 226 237 245 242 226 208 214 220 230 243
191 187 185 189 192 193 191 195 199 197 195 196 201 197 198 203 204 207 203 200 205 210 210 213 214 216 222 215 219 210 217 222 225 225 237 252 271 256 237 223 225 236 243
194 188 188 188 190 192 190 188 190 191 190 195 198 205 215 213 208 211 202 212 204 208 212 216 217 215 222 220 227 218 226 227 232 235 235 234 238 245 257 256 247 242 244
194 186 184 183 186 187 186 184 183 186 187 193 198 202 214 221 227 226 227 222 216 212 217 221 218 220 221 217 222 223 223 231 237 241 238 236 240 240 247 259 260 257 252
193 185 181 181 182 184 185 182 180 184 189 195 203 205 212 219 225 232 230 238 238 227 219 226 220 222 219 220 221 224 230 227 227 232 237 241 246 250 252 260 267 269 263
182 182 182 180 180 182 184 183 181 183 187 195 203 208 214 222 228 232 240 238 245 245 238 231 229 227 225 226 223 227 226 225 227 232 236 240 242 245 248 254 261 269 264
166 164 169 173 175 181 182 183 180 181 185 192 194 198 209 223 229 227 232 240 246 245 240 238 237 235 230 230 228 231 232 229 231 234 231 238 243 244 248 248 250 259 268
158 156 158 168 170 173 176 178 179 183 186 187 195 197 204 213 220 229 234 244 251 255 255 251 248 243 240 237 236 237 234 234 236 238 240 241 244 246 244 242 243 248 258
159 153 156 159 166 166 168 172 178 181 186 191 195 205 207 212 219 225 234 239 248 251 252 252 250 245 240 238 237 242 236 236 238 240 239 239 244 242 239 241 246 251 256
140 141 147 149 153 162 167 169 179 186 193 193 195 200 209 212 219 224 232 237 241 243 243 244 245 249 243 240 238 240 243 238 236 238 242 244 241 238 243 243 246 248 249
127 130 134 140 143 150 161 166 182 188 190 191 198 201 209 214 222 232 236 237 238 242 245 242 243 247 247 242 240 240 242 239 238 238 239 243 244 245 247 248 249 250 248
130 130 133 133 132 135 150 167 176 176 187 194 202 209 219 220 223 231 238 238 238 240 242 243 244 245 246 242 244 244 242 239 239 236 238 243 243 244 244 246 249 252 254
135 138 140 134 138 142 156 173 175 171 183 197 208 215 225 226 226 230 234 238 239 240 241 242 242 243 243 244 247 248 244 242 240 235 238 240 241 249 251 257 250 249 251
150 144 151 154 158 166 180 179 185 182 197 210 215 218 224 227 230 233 236 237 239 245 243 240 240 241 245 229 248 260 255 250 242 239 237 231 223 218 222 246 261 266 257
181 179 179 177 179 190 190 183 189 202 215 226 229 226 229 231 235 239 236 238 239 240 243 244 246 249 250 213 223 248 255 251 246 241 240 245 230 224 235 223 228 250 259
200 194 198 197 196 188 182 188 185 191 220 241 243 246 245 243 241 240 239 239 239 241 245 248 250 253 248 202 225 245 248 251 245 241 238 239 238 241 245 250 250 252 253
172 177 198 192 160 179 187 187 198 201 226 260 272 265 256 249 244 243 244 243 244 248 250 251 247 248 243 206 225 252 252 243 240 237 234 233 232 211 245 246 251 255 256
71 89 117 94 91 132 190 197 224 230 254 271 279 282 270 255 249 248 247 246 245 251 256 257 255 252 250 216 216 241 252 244 240 233 227 219 219 201 233 240 244 247 253
89 99 93 72 43 16 171 202 262 265 276 286 282 275 275 266 260 257 255 256 254 259 266 268 266 260 254 229 211 228 249 251 244 240 237 216 174 201 228 247 248 249 257
138 123 96 61 36 26 167 233 304 311 301 281 271 268 267 265 254 251 258 259 259 254 257 259 265 261 249 237 213 215 236 264 249 246 246 216 179 207 219 234 238 243 251
154 143 123 82 55 357 253 264 311 319 311 297 283 281 272 265 258 245 241 245 249 260 265 264 262 264 268 235 186 200 217 232 242 249 272 201 201 218 222 217 218 225 241
175 158 160 259 291 296 272 278 296 312 314 303 296 286 273 265 268 272 260 259 261 267 269 270 270 266 261 273 274 241 216 210 228 242 213 201 215 235 253 224 216 231 242
202 215 228 245 265 284 272 267 275 296 302 293 295 294 289 292 283 282 300 283 287 299 285 284 281 272 264 296 345 286 266 261 259 254 238 233 229 232 232 236 240 243 240
236 238 245 253 259 262 263 259 252 231 260 272 283 288 288 299 299 302 307 55 354 82 11 323 306 308 354 58 304 284 287 290 254 247 237 238 243 249 248 245 246 247 247
Height
1518 1520 1521 1522 1524 1524 1525 1526 1528 1529 1529 1531 1532 1533 1534 1535 1536 1537 1538 1540 1541 1543 1544 1547 1548 1549 1551 1552 1553 1554 1555 1556 1557 1558 1559 1559 1559 1560 1560 1561 1561 1562 1562
1516 1517 1519 1521 1522 1523 1524 1525 1526 1527 1528 1529 1531 1532 1533 1534 1535 1537 1537 1538 1540 1541 1543 1544 1546 1548 1549 1550 1551 1552 1554 1555 1556 1556 1557 1558 1559 1558 1559 1559 1559 1559 1559
1512 1514 1516 1518 1520 1521 1522 1523 1524 1525 1527 1528 1530 1531 1532 1533 1535 1535 1536 1537 1538 1539 1541 1543 1545 1546 1547 1549 1549 1550 1551 1553 1554 1554 1555 1555 1555 1556 1557 1556 1556 1556 1556
1510 1512 1514 1516 1518 1519 1521 1521 1522 1523 1525 1527 1529 1530 1531 1533 1534 1534 1535 1535 1536 1537 1539 1541 1543 1544 1545 1546 1547 1549 1549 1550 1551 1552 1552 1553 1553 1553 1554 1554 1554 1553 1553
1507 1509 1511 1513 1515 1517 1519 1519 1519 1521 1524 1526 1527 1528 1530 1532 1533 1533 1534 1534 1535 1536 1538 1539 1540 1541 1543 1544 1545 1546 1547 1548 1548 1549 1550 1550 1550 1551 1551 1551 1551 1551 1551
1504 1507 1509 1511 1513 1515 1517 1518 1518 1519 1522 1524 1526 1527 1528 1530 1532 1532 1533 1534 1535 1535 1536 1537 1538 1539 1540 1541 1542 1543 1544 1544 1545 1546 1547 1548 1548 1548 1548 1548 1547 1548 1548
1502 1504 1507 1508 1510 1512 1514 1516 1517 1518 1520 1522 1524 1525 1526 1528 1530 1531 1532 1533 1534 1534 1534 1535 1535 1536 1537 1538 1539 1539 1541 1541 1542 1542 1544 1544 1545 1545 1545 1545 1545 1544 1544
1500 1502 1504 1506 1507 1510 1511 1513 1514 1516 1518 1519 1521 1523 1524 1526 1528 1529 1530 1530 1531 1532 1532 1532 1532 1533 1534 1535 1536 1537 1537 1538 1538 1539 1540 1540 1541 1541 1542 1542 1542 1541 1541
1499 1500 1502 1504 1505 1507 1509 1511 1512 1514 1516 1517 1519 1520 1522 1523 1525 1526 1527 1528 1528 1529 1529 1529 1529 1530 1530 1531 1532 1533 1533 1534 1534 1535 1536 1536 1537 1537 1537 1538 1538 1539 1538
1498 1499 1501 1502 1504 1506 1507 1509 1510 1512 1514 1515 1517 1518 1519 1520 1521 1522 1523 1524 1525 1525 1525 1526 1526 1527 1527 1527 1528 1529 1529 1530 1530 1531 1531 1531 1532 1533 1533 1533 1534 1534 1534
1496 1498 1499 1501 1503 1505 1506 1507 1509 1510 1512 1513 1514 1516 1516 1517 1518 1519 1520 1520 1521 1521 1522 1522 1522 1523 1523 1524 1524 1525 1525 1526 1526 1526 1527 1527 1527 1528 1529 1529 1529 1530 1530
1496 1497 1499 1500 1502 1503 1505 1506 1507 1508 1510 1511 1512 1513 1514 1515 1515 1516 1516 1517 1517 1518 1518 1518 1519 1519 1519 1520 1521 1521 1522 1522 1522 1522 1523 1523 1524 1524 1524 1524 1525 1525 1525
1496 1497 1499 1500 1501 1502 1504 1505 1506 1507 1508 1508 1509 1510 1511 1512 1512 1512 1513 1513 1514 1514 1515 1515 1515 1515 1516 1516 1517 1518 1518 1518 1518 1518 1519 1519 1520 1520 1520 1520 1520 1520 1520
1495 1497 1498 1499 1500 1501 1502 1503 1504 1505 1506 1506 1507 1507 1508 1508 1509 1509 1510 1510 1510 1510 1511 1511 1511 1512 1512 1512 1513 1514 1514 1514 1514 1514 1514 1515 1515 1515 1515 1515 1515 1515 1515
1495 1496 1497 1498 1499 1499 1500 1501 1502 1503 1503 1504 1504 1505 1505 1506 1506 1506 1506 1507 1507 1507 1507 1507 1507 1508 1508 1508 1509 1509 1510 1509 1510 1510 1510 1510 1511 1510 1511 1511 1511 1511 1511
1494 1495 1496 1497 1497 1498 1498 1499 1499 1500 1501 1501 1502 1502 1502 1503 1503 1503 1503 1503 1503 1503 1503 1503 1503 1504 1504 1504 1504 1505 1505 1505 1505 1505 1506 1506 1506 1506 1506 1506 1506 1507 1506
1493 1494 1495 1495 1496 1496 1496 1496 1497 1498 1498 1499 1499 1499 1499 1499 1499 1500 1500 1500 1500 1500 1500 1500 1500 1499 1500 1500 1500 1501 1501 1501 1501 1501 1501 1502 1502 1502 1502 1502 1502 1502 1501
1492 1493 1493 1493 1494 1494 1495 1495 1495 1495 1496 1496 1496 1496 1496 1496 1496 1496 1496 1496 1497 1497 1496 1496 1496 1496 1496 1496 1496 1496 1496 1497 1497 1497 1497 1497 1497 1498 1498 1498 1498 1497 1497
1491 1491 1492 1492 1492 1492 1493 1493 1493 1493 1493 1493 1493 1493 1493 1493 1493 1493 1493 1493 1493 1493 1493 1493 1492 1492 1491 1491 1491 1491 1492 1492 1492 1492 1493 1493 1493 1493 1493 1493 1493 1493 1493
1489 1489 1490 1490 1490 1490 1491 1491 1491 1491 1491 1491 1490 1490 1490 1490 1490 1490 1489 1490 1490 1490 1490 1489 1488 1488 1487 1486 1486 1487 1487 1488 1488 1488 1488 1488 1489 1489 1489 1489 1489 1489 1489
1487 1488 1488 1488 1488 1488 1489 1489 1489 1489 1489 1489 1488 1488 1487 1487 1487 1487 1487 1487 1487 1486 1486 1485 1484 1483 1483 1482 1482 1482 1483 1483 1484 1484 1484 1485 1484 1484 1484 1485 1485 1485 1485
1486 1486 1486 1486 1486 1486 1487 1487 1487 1487 1487 1486 1486 1485 1485 1485 1485 1484 1484 1484 1484 1483 1482 1481 1480 1480 1479 1478 1478 1478 1478 1479 1479 1480 1480 1480 1480 1480 1480 1480 1480 1481 1481
1484 1485 1485 1484 1484 1485 1485 1485 1484 1484 1484 1484 1483 1483 1482 1482 1482 1481 1481 1481 1481 1480 1479 1478 1477 1477 1476 1475 1474 1474 1474 1474 1475 1476 1476 1475 1475 1475 1475 1475 1476 1476 1477
1483 1483 1483 1483 1483 1483 1483 1482 1483 1482 1482 1482 1482 1481 1480 1479 1479 1479 1479 1478 1478 1477 1476 1475 1474 1474 1473 1472 1471 1471 1471 1471 1472 1471 1471 1471 1471 1471 1471 1471 1472 1472 1472
1481 1481 1481 1481 1481 1481 1481 1481 1480 1480 1481 1481 1480 1479 1478 1478 1477 1476 1476 1475 1474 1474 1473 1472 1471 1470 1470 1469 1468 1468 1468 1468 1468 1467 1468 1468 1468 1468 1468 1468 1468 1469 1469
1479 1479 1479 1479 1479 1479 1479 1479 1478 1478 1478 1478 1478 1478 1477 1476 1475 1474 1473 1472 1472 1471 1469 1469 1468 1467 1466 1465 1465 1465 1464 1464 1464 1464 1464 1464 1464 1464 1464 1464 1465 1465 1465